WA8SIE Weather Reports


Display with metric or nautical units.
time (UTC)temp
F
wind
direction
speed
MPH
gust
MPH
rain 1hr
in
rain 24hr
in
rain mn
in
humidity
%
barometer
mb
20260902161012 90 215 0.0 0.0 0.00 0.00 0.00 63 1014.6
20260902160510 90 215 0.0 0.0 0.00 0.00 0.00 61 1014.6
20260902160011 90 215 0.0 2.0 0.00 0.00 0.00 65 1014.6
20260902155511 90 304 0.0 6.0 0.00 0.00 0.00 63 1014.6
20260902155012 90 268 0.0 6.0 0.00 0.00 0.00 61 1014.6
20260902154511 90 271 0.0 0.0 0.00 0.00 0.00 63 1014.6
20260902154011 89 255 0.0 0.0 0.00 0.00 0.00 63 1014.7
20260902153510 89 225 0.0 0.0 0.00 0.00 0.00 64 1014.7
20260902153011 88 223 0.0 0.0 0.00 0.00 0.00 65 1014.7
20260902152510 88 214 0.0 0.0 0.00 0.00 0.00 66 1014.7
20260902152011 88 148 0.0 0.0 0.00 0.00 0.00 66 1014.7
20260902151511 87 163 0.0 0.0 0.00 0.00 0.00 66 1014.7
20260902151011 86 179 0.0 0.0 0.00 0.00 0.00 67 1014.5
20260902150510 86 141 0.0 0.0 0.00 0.00 0.00 68 1014.5
20260902150010 86 181 0.0 0.0 0.00 0.00 0.00 70 1014.5
20260902145512 85 223 0.0 0.0 0.00 0.00 0.00 70 1014.5
20260902144510 85 276 0.0 0.0 0.00 0.00 0.00 72 1014.5
20260902143510 84 205 0.0 0.0 0.00 0.00 0.00 71 1014.6
20260902143010 84 204 0.0 0.0 0.00 0.00 0.00 74 1014.6
20260902141512 83 203 0.0 0.0 0.00 0.00 0.00 77 1014.6
20260902141011 82 203 0.0 0.0 0.00 0.00 0.00 79 1014.4
20260902140511 81 203 0.0 0.0 0.00 0.00 0.00 79 1014.4
20260902140010 81 204 0.0 0.0 0.00 0.00 0.00 82 1014.4
20260902135510 80 110 0.0 0.0 0.00 0.00 0.00 83 1014.4
20260902135010 80 110 0.0 0.0 0.00 0.00 0.00 84 1014.4
20260902134511 80 110 0.0 0.0 0.00 0.00 0.00 83 1014.4
20260902134011 79 111 0.0 0.0 0.00 0.00 0.00 84 1014.5
20260902133511 79 111 0.0 0.0 0.00 0.00 0.00 87 1014.5
20260902133011 78 183 0.0 0.0 0.00 0.00 0.00 88 1014.5
20260902131511 77 181 0.0 0.0 0.00 0.00 0.00 90 1014.5
20260902131011 77 182 0.0 0.0 0.00 0.00 0.00 91 1014.4
20260902130511 77 181 0.0 0.0 0.00 0.00 0.00 93 1014.4
20260902130011 76 181 0.0 0.0 0.00 0.00 0.00 95 1014.4
20260902125511 76 181 0.0 0.0 0.00 0.00 0.00 98 1014.5
20260902125011 75 181 0.0 0.0 0.00 0.00 0.00 99 1014.5
20260902124511 75 181 0.0 0.0 0.00 0.00 0.00 100 1014.5
20260902124011 75 181 0.0 0.0 0.00 0.00 0.00 100 1014.4
20260902123511 74 181 0.0 0.0 0.00 0.00 0.00 100 1014.4
20260902123011 74 182 0.0 0.0 0.00 0.00 0.00 100 1014.4
20260902122511 73 181 0.0 0.0 0.00 0.00 0.00 100 1014.4
20260902122011 73 181 0.0 0.0 0.00 0.00 0.00 100 1014.4
20260902121513 72 181 0.0 0.0 0.00 0.00 0.00 100 1014.4
20260902121011 72 181 0.0 0.0 0.00 0.00 0.00 100 1014.6
20260902120511 72 181 0.0 0.0 0.00 0.00 0.00 100 1014.6
20260902115511 71 181 0.0 0.0 0.00 0.00 0.00 100 1014.4
20260902115011 71 181 0.0 0.0 0.00 0.00 0.00 100 1014.4
20260902114511 71 181 0.0 0.0 0.00 0.00 0.00 100 1014.4
20260902114011 70 181 0.0 0.0 0.00 0.00 0.00 100 1014.3
20260902113511 70 181 0.0 3.0 0.00 0.00 0.00 100 1014.3
20260902113011 70 182 0.0 3.0 0.00 0.00 0.00 100 1014.3
20260902112511 70 182 0.0 0.0 0.00 0.00 0.00 100 1014.1
20260902111511 70 181 0.0 2.0 0.00 0.00 0.00 100 1014.1
20260902111011 70 181 0.0 0.0 0.00 0.00 0.00 100 1014.1
20260902110511 70 181 0.0 0.0 0.00 0.00 0.00 100 1014.1
20260902110012 70 182 0.0 0.0 0.00 0.00 0.00 100 1014.1
20260902105512 70 181 0.0 0.0 0.00 0.00 0.00 100 1014.1
20260902105012 70 181 0.0 0.0 0.00 0.00 0.00 100 1014.1
20260902104511 70 181 0.0 0.0 0.00 0.00 0.00 100 1014.1
20260902103511 70 181 0.0 0.0 0.00 0.00 0.00 100 1014.0
20260902103011 70 181 0.0 0.0 0.00 0.00 0.00 100 1014.0
20260902102511 71 181 0.0 0.0 0.00 0.00 0.00 100 1013.8
20260902102011 71 181 0.0 0.0 0.00 0.00 0.00 100 1013.8
20260902101511 71 181 0.0 0.0 0.00 0.00 0.00 100 1013.8
20260902101013 71 181 0.0 0.0 0.00 0.00 0.00 100 1013.9
20260902100011 71 182 0.0 2.0 0.00 0.00 0.00 100 1013.9
20260902095511 71 181 0.0 2.0 0.00 0.00 0.00 100 1013.9
20260902095010 71 182 0.0 2.0 0.00 0.00 0.00 100 1013.9
20260902094011 71 181 1.0 2.0 0.00 0.00 0.00 100 1013.7
20260902092011 71 182 0.0 0.0 0.00 0.00 0.00 100 1013.5
20260902091511 71 181 0.0 0.0 0.00 0.00 0.00 100 1013.5
20260902090510 72 181 0.0 0.0 0.00 0.00 0.00 100 1013.5
20260902090011 72 181 0.0 0.0 0.00 0.00 0.00 100 1013.5
20260902085512 72 181 0.0 0.0 0.00 0.00 0.00 100 1013.4
20260902084511 72 181 0.0 0.0 0.00 0.00 0.00 100 1013.4
20260902084011 72 181 0.0 1.0 0.00 0.00 0.00 100 1013.2
20260902083011 72 181 0.0 0.0 0.00 0.00 0.00 100 1013.2
20260902082013 72 181 0.0 0.0 0.00 0.00 0.00 100 1013.1
20260902081510 72 181 0.0 0.0 0.00 0.00 0.00 100 1013.1
20260902081011 72 181 0.0 0.0 0.00 0.00 0.00 100 1013.1
20260902080511 72 181 0.0 0.0 0.00 0.00 0.00 100 1013.1
20260902080010 72 181 0.0 1.0 0.00 0.00 0.00 100 1013.1
20260902075510 72 181 0.0 2.0 0.00 0.00 0.00 100 1013.0
20260902075011 72 181 1.0 2.0 0.00 0.00 0.00 100 1013.0
20260902074511 72 181 0.0 0.0 0.00 0.00 0.00 100 1013.0
20260902073511 72 181 0.0 0.0 0.00 0.00 0.00 100 1013.2
20260902073011 73 181 0.0 0.0 0.00 0.00 0.00 100 1013.2
20260902072510 73 181 0.0 0.0 0.00 0.00 0.00 100 1013.2
20260902072010 73 181 0.0 0.0 0.00 0.00 0.00 100 1013.2
20260902071510 73 181 0.0 0.0 0.00 0.00 0.00 100 1013.2
20260902071010 73 181 0.0 0.0 0.00 0.00 0.00 100 1013.1
20260902070510 73 181 0.0 0.0 0.00 0.00 0.00 100 1013.1
20260902070010 73 181 0.0 0.0 0.00 0.00 0.00 100 1013.1
20260902065512 73 181 0.0 0.0 0.00 0.00 0.00 100 1013.0
20260902065010 73 181 0.0 0.0 0.00 0.00 0.00 100 1013.0
20260902064510 73 181 0.0 0.0 0.00 0.00 0.00 100 1013.0
20260902064011 74 181 0.0 0.0 0.00 0.00 0.00 100 1013.1
20260902063511 74 181 0.0 0.0 0.00 0.00 0.00 100 1013.1
20260902063010 74 181 0.0 0.0 0.00 0.00 0.00 100 1013.1
20260902062511 74 181 0.0 0.0 0.00 0.00 0.00 100 1013.2
20260902062010 74 181 0.0 0.0 0.00 0.00 0.00 100 1013.2
20260902061511 74 181 0.0 0.0 0.00 0.00 0.00 100 1013.2
20260902061010 74 181 0.0 0.0 0.00 0.00 0.00 100 1013.1
20260902060510 74 181 0.0 0.0 0.00 0.00 0.00 100 1013.1
20260902060011 74 181 0.0 0.0 0.00 0.00 0.00 100 1013.1
20260902055510 74 181 0.0 0.0 0.00 0.00 0.00 100 1012.9
20260902055010 74 181 0.0 0.0 0.00 0.00 0.00 100 1012.9
20260902054510 74 181 0.0 0.0 0.00 0.00 0.00 100 1012.9
20260902054010 74 181 0.0 0.0 0.00 0.00 0.00 100 1012.9
20260902053510 74 181 0.0 0.0 0.00 0.00 0.00 100 1012.9
20260902053011 74 181 0.0 0.0 0.00 0.00 0.00 100 1012.9
20260902051511 74 182 0.0 0.0 0.00 0.00 0.00 100 1012.8
20260902051011 74 181 0.0 2.0 0.00 0.00 0.00 100 1012.7
20260902050511 75 181 0.0 2.0 0.00 0.00 0.00 100 1012.7
20260902050012 75 181 0.0 0.0 0.00 0.00 0.00 100 1012.7
20260902045511 75 181 0.0 0.0 0.00 0.00 0.00 100 1012.6
20260902045011 75 181 0.0 0.0 0.00 0.00 0.00 100 1012.6
20260902044513 75 181 0.0 0.0 0.00 0.00 0.00 100 1012.6
20260902044011 75 181 0.0 0.0 0.00 0.00 0.00 100 1012.7
20260902043511 75 181 0.0 0.0 0.00 0.00 0.00 100 1012.7
20260902043013 75 181 0.0 2.0 0.00 0.00 0.00 100 1012.7
20260902042511 75 182 0.0 2.0 0.00 0.00 0.00 99 1012.6
20260902042013 75 181 0.0 0.0 0.00 0.00 0.00 99 1012.6
20260902041513 75 181 0.0 1.0 0.00 0.00 0.00 99 1012.6
20260902040513 76 181 0.0 0.0 0.00 0.00 0.00 99 1012.8
20260902035511 76 182 0.0 0.0 0.00 0.00 0.00 98 1012.6
20260902035011 76 181 0.0 0.0 0.00 0.00 0.00 98 1012.6
20260902034513 76 181 0.0 0.0 0.00 0.00 0.00 98 1012.6
20260902034012 76 181 0.0 0.0 0.00 0.00 0.00 97 1012.5
20260902033511 76 181 0.0 0.0 0.00 0.00 0.00 97 1012.5
20260902033011 76 181 0.0 0.0 0.00 0.00 0.00 97 1012.5
20260902032511 76 181 0.0 0.0 0.00 0.00 0.00 97 1012.5
20260902032011 76 181 0.0 0.0 0.00 0.00 0.00 97 1012.5
20260902031511 76 181 0.0 0.0 0.00 0.00 0.00 97 1012.5
20260902031011 77 182 0.0 0.0 0.00 0.00 0.00 96 1012.6
20260902030011 77 181 0.0 0.0 0.00 0.00 0.00 96 1012.6
20260902025511 77 181 0.0 0.0 0.00 0.00 0.00 95 1012.6
20260902024013 77 181 0.0 0.0 0.00 0.00 0.00 95 1012.7
20260902023011 78 181 0.0 1.0 0.00 0.00 0.00 95 1012.7
20260902022511 78 181 0.0 2.0 0.00 0.00 0.00 94 1012.5
20260902022013 78 181 0.0 2.0 0.00 0.00 0.00 94 1012.5
20260902021511 78 181 0.0 1.0 0.00 0.00 0.00 94 1012.5
20260902021011 78 181 0.0 1.0 0.00 0.00 0.00 93 1012.5
20260902020511 78 181 0.0 0.0 0.00 0.00 0.00 93 1012.5
20260902020011 78 183 0.0 0.0 0.00 0.00 0.00 93 1012.5
20260902015511 78 184 0.0 0.0 0.00 0.00 0.00 93 1012.4
20260902015011 78 184 0.0 0.0 0.00 0.00 0.00 93 1012.4
20260902014510 79 185 0.0 0.0 0.00 0.00 0.00 92 1012.4
20260902014011 79 184 0.0 0.0 0.00 0.00 0.00 92 1012.4
20260902013511 79 184 0.0 0.0 0.00 0.00 0.00 92 1012.4
20260902013011 79 184 0.0 0.0 0.00 0.00 0.00 91 1012.4
20260902012511 79 184 0.0 0.0 0.00 0.00 0.00 91 1012.3
20260902012014 0 0.0 0.0 0.31 0.00 0.00
20260902011512 0 0.0 0.0 0.31 0.00 0.00
20260902011012 0 0.0 0.0 0.31 0.00 0.00
20260902010511 0 0.0 0.0 0.31 0.00 0.00
20260902005010 0 0.0 0.0 0.31 0.00 0.00
20260902004511 0 0.0 0.0 0.31 0.00 0.00
20260902004011 0 0.0 0.0 0.31 0.00 0.00
20260902002510 0 0.0 0.0 0.31 0.00 0.00
20260902002010 0 0.0 0.0 0.31 0.00 0.00
20260902001511 0 0.0 0.0 0.31 0.00 0.00
20260902001011 0 0.0 0.0 0.31 0.00 0.00
20260902000010 0 0.0 0.0 0.31 0.00 0.00
20260901235512 0 0.0 0.0 0.31 0.00 0.00
20260901235010 0 0.0 0.0 0.31 0.00 0.00
20260901234510 0 0.0 0.0 0.31 0.00 0.00
20260901234011 0 0.0 0.0 0.31 0.00 0.00
20260901233510 0 0.0 0.0 0.31 0.00 0.00
20260901231510 0 0.0 0.0 0.31 0.00 0.00
20260901230510 0 0.0 0.0 0.31 0.00 0.00
20260901230010 0 0.0 0.0 0.31 0.00 0.00
20260901225511 87 184 0.0 3.0 0.00 0.00 0.00 68 1011.6
20260901225011 88 185 0.0 0.0 0.00 0.00 0.00 68 1011.6
20260901224011 88 184 0.0 5.0 0.00 0.00 0.00 64 1011.6
20260901223511 89 184 0.0 6.0 0.00 0.00 0.00 62 1011.6
20260901222011 89 203 0.0 6.0 0.00 0.00 0.00 61 1011.8
20260901221511 89 203 0.0 6.0 0.00 0.00 0.00 61 1011.8
20260901221011 90 197 0.0 4.0 0.00 0.00 0.00 60 1011.8
20260901220511 90 204 0.0 4.0 0.00 0.00 0.00 61 1011.8
20260901220011 90 200 0.0 7.0 0.00 0.00 0.00 58 1011.8
20260901215511 90 200 2.0 7.0 0.00 0.00 0.00 58 1011.9
20260901214511 90 172 0.0 10.0 0.00 0.00 0.00 57 1011.9
20260901214013 90 195 0.0 7.0 0.00 0.00 0.00 58 1012.1
20260901213513 90 195 0.0 7.0 0.00 0.00 0.00 56 1012.1
20260901213011 90 198 0.0 3.0 0.00 0.00 0.00 55 1012.1
20260901212511 90 198 0.0 4.0 0.00 0.00 0.00 56 1012.4
20260901212012 90 198 0.0 4.0 0.00 0.00 0.00 54 1012.4
20260901211511 90 200 0.0 5.0 0.00 0.00 0.00 55 1012.4
20260901211011 90 200 0.0 6.0 0.00 0.00 0.00 56 1012.4
20260901210512 90 179 0.0 6.0 0.00 0.00 0.00 54 1012.4
20260901210013 90 190 0.0 4.0 0.00 0.00 0.00 56 1012.4
20260901205511 90 201 0.0 4.0 0.00 0.00 0.00 55 1012.3
20260901205011 91 201 0.0 4.0 0.00 0.00 0.00 54 1012.3
20260901204511 91 203 0.0 5.0 0.00 0.00 0.00 56 1012.3
20260901204011 90 195 0.0 5.0 0.00 0.00 0.00 55 1012.4
20260901203511 90 195 5.0 4.0 0.00 0.00 0.00 55 1012.4
20260901203011 91 191 0.0 5.0 0.00 0.00 0.00 56 1012.4
20260901202513 91 191 0.0 5.0 0.00 0.00 0.00 56 1012.7
20260901201511 90 190 0.0 4.0 0.00 0.00 0.00 56 1012.7
20260901201011 90 191 3.0 3.0 0.00 0.00 0.00 58 1012.9
20260901200511 89 191 0.0 3.0 0.00 0.00 0.00 60 1012.9
20260901195511 89 310 0.0 0.0 0.00 0.00 0.00 66 1012.9
20260901195011 89 309 0.0 0.0 0.00 0.00 0.00 62 1012.9
20260901194011 90 309 0.0 0.0 0.00 0.00 0.00 61 1012.9
20260901193511 91 309 0.0 0.0 0.00 0.00 0.00 59 1012.9
20260901193011 91 309 0.0 0.0 0.00 0.00 0.00 55 1012.9
20260901192511 91 309 0.0 4.0 0.00 0.00 0.00 56 1013.1
20260901192011 91 306 0.0 4.0 0.00 0.00 0.00 55 1013.1
20260901191511 91 296 3.0 4.0 0.00 0.00 0.00 53 1013.1
20260901191011 91 298 0.0 4.0 0.00 0.00 0.00 54 1013.1
20260901190510 91 299 0.0 0.0 0.00 0.00 0.00 55 1013.1
20260901190014 91 297 0.0 3.0 0.00 0.00 0.00 55 1013.1
20260901185511 92 2 0.0 7.0 0.00 0.00 0.00 52 1012.9
20260901184511 92 315 6.0 9.0 0.00 0.00 0.00 52 1012.9
20260901184011 92 326 0.0 6.0 0.00 0.00 0.00 54 1013.2
20260901183512 92 327 0.0 6.0 0.00 0.00 0.00 51 1013.2
20260901182012 93 3.0 5.0 0.00 0.00 0.00 51 1013.4
20260901181011 93 356 4.0 5.0 0.00 0.00 0.00 54 1013.8
20260901180512 93 309 0.0 4.0 0.00 0.00 0.00 51 1013.8
20260901180012 92 235 0.0 1.0 0.00 0.00 0.00 55 1013.8
20260901175510 92 301 0.0 5.0 0.00 0.00 0.00 55 1013.9
20260901175011 92 51 0.0 11.0 0.00 0.00 0.00 56 1013.9
20260901174511 92 46 0.0 11.0 0.00 0.00 0.00 55 1013.9
20260901174010 91 178 4.0 6.0 0.00 0.00 0.00 53 1013.9
20260901173511 91 134 0.0 6.0 0.00 0.00 0.00 56 1013.9
20260901173011 92 195 0.0 5.0 0.00 0.00 0.00 56 1013.9
20260901172511 92 276 0.0 5.0 0.00 0.00 0.00 58 1014.1
20260901172011 91 288 0.0 5.0 0.00 0.00 0.00 59 1014.1
20260901171512 91 321 0.0 4.0 0.00 0.00 0.00 57 1014.1
20260901171010 90 195 0.0 4.0 0.00 0.00 0.00 58 1014.4
20260901170510 90 222 0.0 6.0 0.00 0.00 0.00 59 1014.4
20260901170011 91 181 0.0 6.0 0.00 0.00 0.00 59 1014.4
20260901165511 90 300 3.0 3.0 0.00 0.00 0.00 61 1014.3
20260901165010 90 247 0.0 7.0 0.00 0.00 0.00 59 1014.3
20260901164512 90 196 0.0 9.0 0.00 0.00 0.00 61 1014.3
20260901164012 90 296 0.0 9.0 0.00 0.00 0.00 59 1014.3
20260901163510 90 181 0.0 5.0 0.00 0.00 0.00 60 1014.3
20260901162511 89 274 0.0 4.0 0.00 0.00 0.00 62 1014.2
20260901162010 89 176 0.0 4.0 0.00 0.00 0.00 63 1014.2